FW9987 Weather Reports


time (UTC)temp
C
wind
direction
speed
KPH
gust
KPH
rain 1hr
cm
rain 24hr
cm
rain mn
cm
humidity
%
barometer
mb
20260508033050 7 236 1.6 12.9 0.00 0.00 0.00 48 1022.1
20260508031551 8 248 4.8 30.6 0.00 0.00 0.00 46 1022.0
20260508030054 8 338 9.7 25.7 0.00 0.00 0.00 45 1021.6
20260508024551 7 242 1.6 8.0 0.00 0.00 0.00 45 1021.5
20260508023052 7 215 4.8 8.0 0.00 0.00 0.00 43 1021.3
20260508021553 7 206 3.2 8.0 0.00 0.00 0.00 42 1021.1
20260508020053 8 0 0.0 9.7 0.00 0.00 0.00 40 1020.9
20260508014553 8 290 4.8 17.7 0.00 0.00 0.00 38 1020.9
20260508013054 9 215 9.7 19.3 0.00 0.00 0.00 37 1020.9
20260508011553 9 270 8.0 20.9 0.00 0.00 0.00 39 1020.8
20260508010050 8 161 6.4 20.9 0.00 0.00 0.00 40 1020.7
20260508004550 9 328 6.4 24.1 0.00 0.00 0.00 38 1020.6
20260508003100 10 272 9.7 32.2 0.00 0.00 0.00 36 1020.7
20260508001553 11 163 14.5 29.0 0.00 0.00 0.00 35 1020.6
20260508000053 10 329 9.7 27.4 0.00 0.00 0.00 35 1020.7
20260507234554 10 151 11.3 29.0 0.00 0.00 0.00 35 1020.5
20260507233056 11 329 16.1 32.2 0.00 0.00 0.00 35 1020.6
20260507231556 11 259 12.9 27.4 0.00 0.00 0.00 36 1020.4
20260507230059 10 244 6.4 25.7 0.00 0.00 0.00 38 1020.5
20260507224613 10 287 9.7 27.4 0.00 0.00 0.00 36 1020.6
20260507223054 11 300 9.7 32.2 0.00 0.00 0.00 33 1020.6
20260507221551 11 346 11.3 27.4 0.00 0.00 0.00 36 1020.5
20260507220048 12 299 14.5 32.2 0.00 0.00 0.00 37 1020.7
20260507214553 11 219 11.3 30.6 0.00 0.00 0.00 40 1020.8
20260507213049 10 274 16.1 41.8 0.00 0.00 0.00 41 1021.2
20260507211609 10 294 11.3 32.2 0.00 0.00 0.00 40 1021.2
20260507210046 10 294 17.7 29.0 0.00 0.00 0.00 38 1021.3
20260507204557 10 155 9.7 22.5 0.00 0.03 0.00 40 1021.3
20260507203048 10 320 19.3 30.6 0.00 0.03 0.00 39 1021.4
20260507201601 11 313 9.7 29.0 0.00 0.03 0.00 37 1021.7
20260507200059 11 246 8.0 25.7 0.00 0.03 0.00 42 1021.7
20260507194553 12 304 11.3 25.7 0.00 0.18 0.00 38 1021.8
20260507193045 11 238 14.5 29.0 0.00 0.18 0.00 38 1021.7
20260507191551 11 213 9.7 32.2 0.00 0.18 0.00 41 1021.9
20260507190050 11 270 9.7 33.8 0.00 0.18 0.00 40 1022.0
20260507184548 10 324 9.7 25.7 0.00 0.56 0.00 45 1022.0
20260507183051 8 314 11.3 24.1 0.00 0.56 0.00 44 1022.4
20260507181549 8 306 11.3 29.0 0.00 0.56 0.00 44 1022.3
20260507180051 8 312 9.7 22.5 0.00 0.56 0.00 47 1022.4
20260507174550 8 0 1.6 12.9 0.00 0.56 0.00 50 1022.6
20260507173047 7 277 1.6 9.7 0.00 0.56 0.00 52 1022.7
20260507171558 6 302 6.4 19.3 0.00 0.56 0.00 53 1022.9
20260507170052 6 347 11.3 20.9 0.00 0.56 0.00 55 1023.2
20260507164559 6 306 4.8 22.5 0.00 0.56 0.00 60 1023.4
20260507163049 6 325 6.4 17.7 0.00 0.56 0.00 59 1023.4
20260507161551 5 307 6.4 20.9 0.00 0.56 0.00 61 1023.6
20260507160049 5 207 4.8 12.9 0.00 0.56 0.00 65 1023.6
20260507154555 4 217 8.0 17.7 0.00 0.56 0.00 57 1023.6
20260507153053 3 259 4.8 19.3 0.00 0.56 0.00 62 1023.7
20260507151551 2 175 8.0 14.5 0.00 0.56 0.00 63 1023.6
20260507150050 1 231 3.2 14.5 0.00 0.56 0.00 67 1023.7
20260507144552 1 116 8.0 20.9 0.00 0.56 0.00 63 1023.6
20260507143054 1 33 4.8 8.0 0.00 0.56 0.00 58 1023.7
20260507141550 1 360 1.6 6.4 0.00 0.56 0.00 60 1023.8
20260507140101 0 153 1.6 8.0 0.00 0.56 0.00 68 1023.9
20260507134553 0 0 3.2 6.4 0.00 0.56 0.00 69 1023.8
20260507133048 0 188 1.6 6.4 0.00 0.56 0.00 65 1023.6
20260507131552 0 0 0.0 0.0 0.00 0.56 0.00 62 1023.6
20260507130051 -2 0 0.0 0.0 0.00 0.56 0.00 67 1023.7
20260507124553 -3 0 0.0 0.0 0.00 0.56 0.00 69 1023.6
20260507123049 -3 0 0.0 0.0 0.00 0.56 0.00 70 1023.4
20260507121552 -5 0 0.0 0.0 0.00 0.56 0.00 71 1023.1
20260507120045 -5 0 0.0 0.0 0.00 0.56 0.00 70 1023.1
20260507114550 -4 0 0.0 0.0 0.00 0.56 0.00 68 1023.2
20260507113048 -3 0 0.0 0.0 0.00 0.56 0.00 68 1023.1
20260507111547 -3 0 0.0 0.0 0.00 0.56 0.00 64 1023.1
20260507110051 -3 0 0.0 0.0 0.00 0.56 0.00 67 1023.1
20260507104553 -5 0 0.0 0.0 0.00 0.56 0.00 75 1023.2
20260507103048 -5 0 0.0 0.0 0.00 0.56 0.00 74 1023.0
20260507101606 -5 0 0.0 0.0 0.00 0.56 0.00 75 1023.1
20260507100053 -5 0 0.0 0.0 0.00 0.56 0.00 77 1022.9
20260507094556 -5 0 0.0 0.0 0.00 0.56 0.00 78 1023.1
20260507093048 -5 0 0.0 0.0 0.00 0.56 0.00 75 1023.0
20260507091600 -5 0 0.0 0.0 0.00 0.56 0.00 77 1023.2
20260507090110 -5 0 0.0 0.0 0.00 0.56 0.00 77 1023.2
20260507084554 -4 0 0.0 0.0 0.00 0.56 0.00 77 1023.2
20260507083046 -5 0 0.0 0.0 0.00 0.56 0.00 81 1023.3
20260507081556 -5 0 0.0 0.0 0.00 0.56 0.00 81 1023.1
20260507080049 -5 0 0.0 0.0 0.00 0.56 0.00 79 1023.2
20260507074549 -4 0 0.0 0.0 0.00 0.56 0.00 80 1023.1
20260507073058 -4 0 0.0 0.0 0.00 0.56 0.00 81 1023.1
20260507071556 -4 0 0.0 0.0 0.00 0.56 0.00 83 1023.2
20260507070119 -4 0 0.0 0.0 0.00 0.56 0.00 82 1023.3
20260507064553 -3 0 0.0 0.0 0.00 0.56 0.00 78 1023.2
20260507063046 -2 0 0.0 0.0 0.00 0.56 0.00 74 1023.1
20260507061549 -2 0 0.0 0.0 0.00 0.56 0.00 73 1023.1
20260507060046 -2 0 0.0 0.0 0.00 0.56 0.00 76 1022.8
20260507054554 -3 0 0.0 0.0 0.00 0.56 0.56 79 1022.4
20260507053053 -3 0 0.0 0.0 0.00 0.56 0.56 81 1022.4
20260507051551 -3 0 0.0 0.0 0.00 0.56 0.56 84 1022.4
20260507050050 -2 0 0.0 0.0 0.00 0.56 0.56 83 1022.0
20260507044551 -2 0 0.0 0.0 0.00 0.56 0.56 85 1022.3
20260507043049 -3 0 0.0 0.0 0.00 0.56 0.56 89 1022.0
20260507041548 -3 0 0.0 0.0 0.00 0.56 0.56 89 1021.9
20260507040052 -4 0 0.0 0.0 0.00 0.56 0.56 92 1021.9
20260507034551 -4 0 0.0 0.0 0.00 0.56 0.56 92 1021.7